This is the latest recevied weather packets stored in our database for station/object IZ1UQG-1. If no packets are shown the sender has not sent any weather packets the latest 10 day(s).
| Time | Temp. | Humidity | Pressure | Rain* | Wind** | Luminosity | Snow |
|---|---|---|---|---|---|---|---|
| 1777878238 | 18.33° C | 56% | 1017.5 hPa | 152.91 mm | - | - | - |
| 1777877938 | 17.78° C | 56% | 1017.5 hPa | 87.63 mm | - | - | - |
| 1777877638 | 17.78° C | 56% | 1017.4 hPa | 182.12 mm | - | - | - |
| 1777877338 | 17.78° C | 56% | 1017.6 hPa | 194.06 mm | - | - | - |
| 1777877038 | 17.78° C | 57% | 1017.6 hPa | 172.72 mm | - | - | - |
| 1777876738 | 17.78° C | 57% | 1017.6 hPa | 139.95 mm | - | - | - |
| 1777876438 | 17.22° C | 57% | 1017.7 hPa | 159.26 mm | - | - | - |
| 1777876138 | 17.22° C | 57% | 1017.6 hPa | 188.72 mm | - | - | - |
| 1777875838 | 16.67° C | 56% | 1017.7 hPa | 172.21 mm | - | - | - |
| 1777875538 | 16.11° C | 56% | 1017.8 hPa | 148.34 mm | - | - | - |
| 1777875238 | 16.11° C | 56% | 1017.9 hPa | 152.91 mm | - | - | - |
| 1777874938 | 16.11° C | 56% | 1017.8 hPa | 161.29 mm | - | - | - |
| 1777874638 | 15.56° C | 56% | 1017.9 hPa | 168.66 mm | - | - | - |
| 1777874338 | 15.56° C | 56% | 1017.7 hPa | 107.44 mm | - | - | - |
| 1777874038 | 15.56° C | 56% | 1017.7 hPa | 160.78 mm | - | - | - |
| 1777873738 | 15.56° C | 56% | 1017.6 hPa | 136.4 mm | - | - | - |
| 1777873438 | 15.56° C | 56% | 1017.6 hPa | 171.2 mm | - | - | - |
| 1777873138 | 15.56° C | 56% | 1017.4 hPa | 145.8 mm | - | - | - |
| 1777872838 | 15.56° C | 56% | 1017.5 hPa | 196.09 mm | - | - | - |
| 1777872538 | 15.56° C | 55% | 1017.5 hPa | 160.78 mm | - | - | - |
| 1777872238 | 15.56° C | 55% | 1017.5 hPa | 141.73 mm | - | - | - |
| 1777871938 | 15.56° C | 55% | 1017.4 hPa | 149.86 mm | - | - | - |
| 1777871638 | 15.56° C | 55% | 1017.4 hPa | 196.6 mm | - | - | - |
| 1777871338 | 15.56° C | 55% | 1017.4 hPa | 154.18 mm | - | - | - |
| 1777871038 | 15.56° C | 55% | 1017.3 hPa | 160.27 mm | - | - | - |
* Rain latest hour (hover to see other rain measurements)
** Current wind speed in m/s (hover to see current wind gust speed)